TimeCET,TemperatureF,Dew PointF,Humidity,Sea Level PressureIn,VisibilityMPH,Wind Direction,Wind SpeedMPH,Gust SpeedMPH,PrecipitationIn,Events,Conditions,WindDirDegrees,DateUTC
6:00 AM,59.0,53.6,82,29.68,-9999.0,East,1.2,-,N/A,,Clear,90,2012-11-18 05:00:00
6:30 AM,60.8,51.8,72,29.68,-9999.0,WNW,1.2,-,N/A,,Clear,300,2012-11-18 05:30:00
7:00 AM,60,53,71,29.73,9,Calm,Calm,,,,Mostly Cloudy,,2012-11-18 06:00:00
7:00 AM,60.8,53.6,77,29.68,-9999.0,Calm,Calm,-,N/A,,Clear,0,2012-11-18 06:00:00
7:30 AM,60.8,51.8,72,29.71,-9999.0,Variable,1.2,-,N/A,,Clear,0,2012-11-18 06:30:00
8:00 AM,60.8,53.6,77,29.71,-9999.0,Calm,Calm,-,N/A,,Clear,0,2012-11-18 07:00:00
8:30 AM,60.8,53.6,77,29.74,6.2,SW,3.5,-,N/A,Rain,Rain,230,2012-11-18 07:30:00
9:00 AM,60.8,53.6,77,29.74,-9999.0,Variable,2.3,-,N/A,,Clear,0,2012-11-18 08:00:00
9:30 AM,60.8,55.4,82,29.74,6.2,Calm,Calm,-,N/A,,Partly Cloudy,0,2012-11-18 08:30:00
10:00 AM,60.8,55.4,82,29.77,6.2,Calm,Calm,-,N/A,,Partly Cloudy,0,2012-11-18 09:00:00
10:30 AM,62.6,57.2,82,29.77,6.2,Variable,1.2,-,N/A,,Partly Cloudy,0,2012-11-18 09:30:00
11:00 AM,64.4,57.2,77,29.77,6.2,Calm,Calm,-,N/A,,Partly Cloudy,0,2012-11-18 10:00:00
11:30 AM,64.4,55.4,73,29.77,6.2,Variable,1.2,-,N/A,,Partly Cloudy,0,2012-11-18 10:30:00
12:00 PM,68.0,57.2,68,29.77,-9999.0,SE,5.8,-,N/A,,Clear,130,2012-11-18 11:00:00
12:30 PM,66.2,57.2,73,29.74,-9999.0,SE,6.9,-,N/A,,Clear,140,2012-11-18 11:30:00
1:00 PM,69,57,57,29.78,31,SE,4.6,,,,Partly Cloudy,140,2012-11-18 12:00:00
1:00 PM,68.0,57.2,68,29.74,-9999.0,SE,5.8,-,N/A,,Clear,140,2012-11-18 12:00:00
1:30 PM,68.0,57.2,68,29.74,-9999.0,SE,6.9,-,N/A,,Clear,130,2012-11-18 12:30:00
2:00 PM,68.0,55.4,64,29.74,6.2,ESE,8.1,-,N/A,,Partly Cloudy,120,2012-11-18 13:00:00
2:30 PM,68.0,55.4,64,29.74,6.2,East,4.6,-,N/A,,Partly Cloudy,100,2012-11-18 13:30:00
3:00 PM,68.0,59.0,73,29.74,6.2,NE,4.6,-,N/A,,Partly Cloudy,50,2012-11-18 14:00:00
3:30 PM,68.0,57.2,68,29.74,6.2,Variable,2.3,-,N/A,,Partly Cloudy,0,2012-11-18 14:30:00
4:00 PM,68.0,57.2,68,29.74,6.2,NNW,4.6,-,N/A,,Partly Cloudy,340,2012-11-18 15:00:00
4:30 PM,68.0,53.6,60,29.77,6.2,Variable,2.3,-,N/A,,Partly Cloudy,0,2012-11-18 15:30:00
5:00 PM,66.2,55.4,68,29.77,-9999.0,West,5.8,-,N/A,,Clear,260,2012-11-18 16:00:00
5:30 PM,66.2,57.2,73,29.77,6.2,WSW,6.9,-,N/A,Rain,Rain,250,2012-11-18 16:30:00
6:00 PM,64.4,57.2,77,29.80,6.2,NNW,5.8,-,N/A,,Partly Cloudy,340,2012-11-18 17:00:00
6:30 PM,64.4,55.4,73,29.83,6.2,West,1.2,-,N/A,,Partly Cloudy,280,2012-11-18 17:30:00
7:00 PM,64,55,66,29.86,12,West,23.0,,,,Partly Cloudy,270,2012-11-18 18:00:00
7:00 PM,64.4,55.4,73,29.83,6.2,Variable,2.3,-,N/A,,Partly Cloudy,0,2012-11-18 18:00:00
7:30 PM,64.4,57.2,77,29.86,6.2,WSW,2.3,-,N/A,,Scattered Clouds,240,2012-11-18 18:30:00